DLH947 EGCC-EDDF

Flight info

Callsign DLH947
Flight time 1h 23m
Altitude 35000
Route SONE1Y SONEX L975 DESIG L603 DOLAS DCT NAVPI DCT NOLRU DCT DIXAT DIXA1A
Aircraft A321/M-SDE3FGHIRWY/LB1

Departure

Time 2026-05-07 14:40
Airport Manchester Airport (EGCC)

Arrival

Time 2026-05-07 16:03
Airport Frankfurt Main Airport (EDDF)
Time Latitude Longitude Altitude Speed Heading
2026-05-07 13:59 53.36764 -2.28399 255 ft 0 kts 134°
2026-05-07 14:23 53.36764 -2.28400 255 ft 1 kts 134°
2026-05-07 14:23 53.36785 -2.28435 255 ft 2 kts 134°
2026-05-07 14:23 53.36799 -2.28453 255 ft 4 kts 208°
2026-05-07 14:23 53.36817 -2.28424 255 ft 4 kts 225°
2026-05-07 14:24 53.36809 -2.28437 255 ft 4 kts 224°
2026-05-07 14:24 53.36790 -2.28468 255 ft 3 kts 224°
2026-05-07 14:24 53.36788 -2.28472 255 ft 0 kts 224°
2026-05-07 14:27 53.36786 -2.28475 255 ft 1 kts 224°
2026-05-07 14:27 53.36777 -2.28489 255 ft 3 kts 224°
2026-05-07 14:27 53.36754 -2.28527 255 ft 4 kts 224°
2026-05-07 14:28 53.36738 -2.28554 255 ft 5 kts 224°
2026-05-07 14:28 53.36708 -2.28603 255 ft 7 kts 224°
2026-05-07 14:28 53.36671 -2.28663 255 ft 8 kts 224°
2026-05-07 14:28 53.36646 -2.28716 255 ft 5 kts 250°
2026-05-07 14:29 53.36632 -2.28772 255 ft 6 kts 229°
2026-05-07 14:29 53.36594 -2.28785 255 ft 5 kts 160°
2026-05-07 14:29 53.36564 -2.28731 255 ft 7 kts 134°
2026-05-07 14:29 53.36526 -2.28667 255 ft 8 kts 134°
2026-05-07 14:30 53.36482 -2.28592 255 ft 10 kts 135°
2026-05-07 14:30 53.36431 -2.28511 255 ft 11 kts 143°
2026-05-07 14:30 53.36361 -2.28473 255 ft 11 kts 164°
2026-05-07 14:30 53.36294 -2.28385 255 ft 13 kts 134°
2026-05-07 14:31 53.36231 -2.28277 255 ft 13 kts 135°
2026-05-07 14:31 53.36162 -2.28162 255 ft 15 kts 134°
2026-05-07 14:31 53.36105 -2.28067 255 ft 11 kts 137°
2026-05-07 14:31 53.36063 -2.28005 255 ft 6 kts 139°
2026-05-07 14:32 53.36049 -2.27984 255 ft 3 kts 139°
2026-05-07 14:32 53.36029 -2.27956 255 ft 4 kts 139°
2026-05-07 14:32 53.36004 -2.27919 255 ft 5 kts 139°
2026-05-07 14:32 53.35971 -2.27876 255 ft 7 kts 147°
2026-05-07 14:33 53.35926 -2.27849 255 ft 6 kts 172°
2026-05-07 14:33 53.35879 -2.27848 254 ft 8 kts 171°
2026-05-07 14:33 53.35832 -2.27768 252 ft 12 kts 131°
2026-05-07 14:33 53.35797 -2.27703 251 ft 7 kts 133°
2026-05-07 14:34 53.35748 -2.27655 250 ft 10 kts 162°
2026-05-07 14:34 53.35671 -2.27591 246 ft 13 kts 143°
2026-05-07 14:34 53.35610 -2.27508 245 ft 8 kts 141°
2026-05-07 14:34 53.35581 -2.27469 245 ft 0 kts 141°
2026-05-07 14:35 53.35580 -2.27468 245 ft 1 kts 141°
2026-05-07 14:36 53.35560 -2.27441 246 ft 10 kts 141°
2026-05-07 14:36 53.35478 -2.27330 248 ft 19 kts 141°
2026-05-07 14:36 53.35385 -2.27210 246 ft 14 kts 150°
2026-05-07 14:36 53.35286 -2.27220 240 ft 12 kts 217°
2026-05-07 14:37 53.35230 -2.27327 238 ft 13 kts 230°
2026-05-07 14:37 53.35134 -2.27510 234 ft 10 kts 206°
2026-05-07 14:37 53.35064 -2.27489 229 ft 6 kts 171°
2026-05-07 14:38 53.35046 -2.27484 228 ft 4 kts 171°
2026-05-07 14:38 53.34991 -2.27470 225 ft 12 kts 171°
2026-05-07 14:38 53.34913 -2.27519 223 ft 11 kts 229°
2026-05-07 14:38 53.34865 -2.27619 222 ft 13 kts 231°
2026-05-07 14:39 53.34795 -2.27765 224 ft 22 kts 231°
2026-05-07 14:39 53.34635 -2.28093 228 ft 66 kts 231°
2026-05-07 14:39 53.34204 -2.28982 230 ft 132 kts 231°
2026-05-07 14:39 53.33512 -2.30421 285 ft 179 kts 229°
2026-05-07 14:40 53.32719 -2.32053 963 ft 180 kts 228°
2026-05-07 14:40 53.31947 -2.33703 1795 ft 183 kts 233°
2026-05-07 14:40 53.31438 -2.35523 2114 ft 203 kts 251°
2026-05-07 14:40 53.31376 -2.38262 2329 ft 230 kts 275°
2026-05-07 14:41 53.31936 -2.40895 2510 ft 254 kts 296°
2026-05-07 14:41 53.33099 -2.43375 2523 ft 291 kts 315°
2026-05-07 14:41 53.34786 -2.45344 2613 ft 291 kts 333°
2026-05-07 14:41 53.36651 -2.46293 2735 ft 274 kts 353°
2026-05-07 14:42 53.38569 -2.46199 2860 ft 275 kts
2026-05-07 14:42 53.40373 -2.45749 3103 ft 249 kts
2026-05-07 14:42 53.41992 -2.45296 3161 ft 235 kts 10°
2026-05-07 14:42 53.43675 -2.44787 3255 ft 252 kts 11°
2026-05-07 14:43 53.45335 -2.43903 3562 ft 252 kts 30°
2026-05-07 14:43 53.46754 -2.42144 4103 ft 254 kts 49°
2026-05-07 14:43 53.47769 -2.39746 4657 ft 253 kts 67°
2026-05-07 14:43 53.48323 -2.36955 5221 ft 252 kts 82°
2026-05-07 14:44 53.48542 -2.34042 5890 ft 250 kts 87°
2026-05-07 14:44 53.48730 -2.31140 6694 ft 250 kts 86°
2026-05-07 14:44 53.48932 -2.28248 7452 ft 250 kts 86°
2026-05-07 14:44 53.49150 -2.25334 8163 ft 253 kts 86°
2026-05-07 14:45 53.49375 -2.22392 8863 ft 256 kts 85°
2026-05-07 14:45 53.49604 -2.19450 9585 ft 257 kts 86°
2026-05-07 14:45 53.49925 -2.16524 10387 ft 256 kts 81°
2026-05-07 14:45 53.50298 -2.13504 10637 ft 275 kts 83°
2026-05-07 14:46 53.50643 -2.10212 10793 ft 298 kts 84°
2026-05-07 14:46 53.50988 -2.06630 10925 ft 321 kts 84°
2026-05-07 14:46 53.51353 -2.02802 11057 ft 342 kts 83°
2026-05-07 14:46 53.51537 -2.00886 11117 ft 352 kts 83°
2026-05-07 14:48 53.51691 -1.99310 11171 ft 359 kts 83°
2026-05-07 14:48 53.52055 -1.95601 11305 ft 374 kts 83°
2026-05-07 14:49 53.52298 -1.91415 11715 ft 378 kts 91°
2026-05-07 14:49 53.52163 -1.87027 12254 ft 379 kts 100°
2026-05-07 14:50 53.51584 -1.82715 12831 ft 379 kts 108°
2026-05-07 14:50 53.50848 -1.78451 13406 ft 381 kts 109°
2026-05-07 14:50 53.50095 -1.74163 13996 ft 384 kts 109°
2026-05-07 14:50 53.49332 -1.69863 14496 ft 387 kts 109°
2026-05-07 14:51 53.48555 -1.65518 14992 ft 390 kts 109°
2026-05-07 14:51 53.47771 -1.61148 15489 ft 393 kts 109°
2026-05-07 14:51 53.46979 -1.56740 15953 ft 396 kts 109°
2026-05-07 14:51 53.46182 -1.52292 16424 ft 399 kts 108°
2026-05-07 14:52 53.45377 -1.47811 16876 ft 402 kts 108°
2026-05-07 14:52 53.44566 -1.43299 17357 ft 405 kts 108°
2026-05-07 14:52 53.43749 -1.38754 17826 ft 408 kts 108°
2026-05-07 14:52 53.42935 -1.34242 18273 ft 411 kts 108°
2026-05-07 14:53 53.42105 -1.29653 18673 ft 414 kts 108°
2026-05-07 14:53 53.41266 -1.25019 19072 ft 416 kts 108°
2026-05-07 14:53 53.40423 -1.20369 19485 ft 418 kts 109°
2026-05-07 14:53 53.39573 -1.15698 19898 ft 420 kts 109°
2026-05-07 14:54 53.38717 -1.11014 20312 ft 422 kts 109°
2026-05-07 14:54 53.37854 -1.06299 20725 ft 424 kts 109°
2026-05-07 14:54 53.36987 -1.01568 21126 ft 426 kts 109°
2026-05-07 14:54 53.36114 -0.96811 21533 ft 428 kts 109°
2026-05-07 14:55 53.35234 -0.92030 21925 ft 431 kts 109°
2026-05-07 14:55 53.34348 -0.87229 22315 ft 433 kts 109°
2026-05-07 14:55 53.33453 -0.82411 22695 ft 435 kts 109°
2026-05-07 14:55 53.32563 -0.77638 23067 ft 437 kts 109°
2026-05-07 14:56 53.31655 -0.72784 23444 ft 439 kts 109°
2026-05-07 14:56 53.30741 -0.67911 23784 ft 441 kts 109°
2026-05-07 14:56 53.29820 -0.62998 24112 ft 443 kts 109°
2026-05-07 14:56 53.28899 -0.58075 24465 ft 444 kts 109°
2026-05-07 14:57 53.27975 -0.53158 24800 ft 445 kts 109°
2026-05-07 14:57 53.27042 -0.48228 25130 ft 446 kts 109°
2026-05-07 14:57 53.26101 -0.43262 25464 ft 448 kts 109°
2026-05-07 14:57 53.25162 -0.38307 25779 ft 449 kts 109°
2026-05-07 14:58 53.24227 -0.33399 26099 ft 449 kts 109°
2026-05-07 14:58 53.23276 -0.28425 26411 ft 450 kts 109°
2026-05-07 14:58 53.22323 -0.23450 26701 ft 451 kts 109°
2026-05-07 14:58 53.21364 -0.18460 26977 ft 452 kts 109°
2026-05-07 14:59 53.20399 -0.13460 27246 ft 453 kts 109°
2026-05-07 14:59 53.19430 -0.08467 27486 ft 453 kts 109°
2026-05-07 14:59 53.18458 -0.03462 27796 ft 452 kts 109°
2026-05-07 14:59 53.17495 0.01515 28148 ft 451 kts 109°
2026-05-07 15:00 53.16534 0.06479 28500 ft 449 kts 109°
2026-05-07 15:00 53.15576 0.11420 28855 ft 448 kts 109°
2026-05-07 15:00 53.14629 0.16285 29209 ft 446 kts 109°
2026-05-07 15:00 53.13672 0.21183 29579 ft 444 kts 109°
2026-05-07 15:01 53.12716 0.26049 29940 ft 442 kts 109°
2026-05-07 15:01 53.11760 0.30893 30281 ft 440 kts 109°
2026-05-07 15:01 53.10801 0.35737 30565 ft 439 kts 109°
2026-05-07 15:01 53.09844 0.40562 30855 ft 438 kts 109°
2026-05-07 15:02 53.08893 0.45362 31156 ft 437 kts 109°
2026-05-07 15:02 53.07942 0.50156 31429 ft 436 kts 109°
2026-05-07 15:02 53.06988 0.54952 31686 ft 436 kts 109°
2026-05-07 15:02 53.06031 0.59726 31934 ft 435 kts 109°
2026-05-07 15:03 53.05074 0.64487 32195 ft 434 kts 109°
2026-05-07 15:03 53.04116 0.69248 32461 ft 434 kts 109°
2026-05-07 15:03 53.03161 0.73984 32725 ft 433 kts 109°
2026-05-07 15:03 53.02217 0.78659 32983 ft 432 kts 109°
2026-05-07 15:04 53.01265 0.83382 33234 ft 431 kts 109°
2026-05-07 15:04 53.00310 0.88099 33505 ft 430 kts 109°
2026-05-07 15:04 52.99352 0.92810 33736 ft 430 kts 109°
2026-05-07 15:04 52.98395 0.97509 33971 ft 430 kts 109°
2026-05-07 15:05 52.97425 1.02210 34186 ft 430 kts 110°
2026-05-07 15:05 52.96411 1.06876 34357 ft 430 kts 110°
2026-05-07 15:05 52.95359 1.11527 34508 ft 431 kts 111°
2026-05-07 15:05 52.94283 1.16183 34658 ft 432 kts 111°
2026-05-07 15:06 52.93216 1.20770 34802 ft 433 kts 111°
2026-05-07 15:06 52.92029 1.25897 34992 ft 434 kts 111°
2026-05-07 15:06 52.89993 1.34803 35102 ft 436 kts 111°
2026-05-07 15:07 52.87845 1.44215 35106 ft 436 kts 111°
2026-05-07 15:07 52.85696 1.53593 35102 ft 437 kts 111°
2026-05-07 15:08 52.83526 1.63009 35113 ft 438 kts 111°
2026-05-07 15:08 52.81342 1.72422 35111 ft 439 kts 111°
2026-05-07 15:09 52.79161 1.81771 35119 ft 439 kts 111°
2026-05-07 15:09 52.76961 1.91187 35120 ft 440 kts 111°
2026-05-07 15:10 52.74753 2.00605 35121 ft 440 kts 111°
2026-05-07 15:10 52.72528 2.10037 35109 ft 441 kts 111°
2026-05-07 15:11 52.70302 2.19411 35109 ft 442 kts 112°
2026-05-07 15:11 52.68052 2.28857 35109 ft 443 kts 112°
2026-05-07 15:12 52.65794 2.38314 35113 ft 444 kts 112°
2026-05-07 15:12 52.63525 2.47771 35121 ft 444 kts 112°
2026-05-07 15:13 52.61240 2.57214 35122 ft 444 kts 112°
2026-05-07 15:13 52.58948 2.66661 35124 ft 445 kts 112°
2026-05-07 15:14 52.56665 2.76046 35120 ft 445 kts 112°
2026-05-07 15:14 52.54334 2.85482 35123 ft 445 kts 114°
2026-05-07 15:15 52.51756 2.94722 35124 ft 445 kts 116°
2026-05-07 15:15 52.49020 3.03831 35125 ft 445 kts 117°
2026-05-07 15:16 52.46286 3.12975 35106 ft 447 kts 117°
2026-05-07 15:16 52.43584 3.22190 35099 ft 449 kts 116°
2026-05-07 15:17 52.40903 3.31369 35100 ft 451 kts 116°
2026-05-07 15:17 52.38179 3.40616 35101 ft 452 kts 117°
2026-05-07 15:18 52.35434 3.49881 35104 ft 452 kts 117°
2026-05-07 15:18 52.32681 3.59138 35103 ft 453 kts 117°
2026-05-07 15:19 52.29910 3.68401 35112 ft 454 kts 117°
2026-05-07 15:19 52.27132 3.77671 35109 ft 454 kts 117°
2026-05-07 15:20 52.24347 3.86929 35116 ft 455 kts 117°
2026-05-07 15:20 52.21548 3.96184 35113 ft 455 kts 117°
2026-05-07 15:21 52.18755 4.05378 35090 ft 457 kts 118°
2026-05-07 15:21 52.15928 4.14666 35092 ft 458 kts 117°
2026-05-07 15:22 52.13091 4.23948 35108 ft 459 kts 118°
2026-05-07 15:22 52.10233 4.33247 35095 ft 459 kts 118°
2026-05-07 15:23 52.07370 4.42564 35100 ft 460 kts 118°
2026-05-07 15:23 52.04528 4.51769 35099 ft 460 kts 118°
2026-05-07 15:24 52.01649 4.61040 35105 ft 460 kts 118°
2026-05-07 15:24 51.98761 4.70312 35102 ft 460 kts 118°
2026-05-07 15:25 51.95867 4.79557 35102 ft 460 kts 118°
2026-05-07 15:25 51.92968 4.88787 35092 ft 460 kts 118°
2026-05-07 15:26 51.90057 4.98039 35092 ft 461 kts 118°
2026-05-07 15:26 51.87161 5.07212 35096 ft 461 kts 118°
2026-05-07 15:27 51.84225 5.16444 35096 ft 461 kts 118°
2026-05-07 15:27 51.81279 5.25661 35094 ft 461 kts 118°
2026-05-07 15:28 51.78328 5.34875 35091 ft 461 kts 118°
2026-05-07 15:28 51.75379 5.44064 35087 ft 462 kts 118°
2026-05-07 15:29 51.72436 5.53208 35087 ft 462 kts 118°
2026-05-07 15:29 51.69469 5.62390 35085 ft 462 kts 119°
2026-05-07 15:30 51.66494 5.71555 35067 ft 462 kts 119°
2026-05-07 15:30 51.63504 5.80725 35063 ft 462 kts 119°
2026-05-07 15:31 51.60509 5.89866 35066 ft 462 kts 119°
2026-05-07 15:31 51.57511 5.98999 35069 ft 463 kts 119°
2026-05-07 15:32 51.54496 6.08164 35071 ft 463 kts 119°
2026-05-07 15:32 51.51488 6.17231 35077 ft 463 kts 119°
2026-05-07 15:33 51.48818 6.26642 35070 ft 465 kts 112°
2026-05-07 15:33 51.46466 6.36289 35075 ft 465 kts 112°
2026-05-07 15:34 51.44092 6.45936 35077 ft 465 kts 112°
2026-05-07 15:34 51.41711 6.55561 35082 ft 465 kts 112°
2026-05-07 15:35 51.39324 6.65177 35073 ft 465 kts 112°
2026-05-07 15:35 51.36950 6.74722 35069 ft 465 kts 112°
2026-05-07 15:36 51.34542 6.84318 35077 ft 465 kts 112°
2026-05-07 15:36 51.32126 6.93911 35076 ft 465 kts 112°
2026-05-07 15:37 51.29706 7.03494 35078 ft 465 kts 113°
2026-05-07 15:37 51.26458 7.12286 35043 ft 451 kts 131°
2026-05-07 15:38 51.24306 7.15837 34783 ft 440 kts 141°
2026-05-07 15:38 51.21913 7.18715 34395 ft 435 kts 149°
2026-05-07 15:38 51.19271 7.21008 33947 ft 430 kts 155°
2026-05-07 15:38 51.16582 7.23114 33409 ft 427 kts 154°
2026-05-07 15:39 51.13944 7.25198 32903 ft 424 kts 154°
2026-05-07 15:39 51.12202 7.26580 32583 ft 421 kts 154°
2026-05-07 15:39 51.08707 7.29397 31506 ft 425 kts 154°
2026-05-07 15:39 51.06019 7.31612 29988 ft 446 kts 153°
2026-05-07 15:40 51.03201 7.33951 28148 ft 466 kts 153°
2026-05-07 15:40 51.00288 7.36371 26646 ft 477 kts 153°
2026-05-07 15:40 50.97373 7.38793 25377 ft 481 kts 154°
2026-05-07 15:40 50.94408 7.41251 24363 ft 479 kts 154°
2026-05-07 15:41 50.91465 7.43675 23400 ft 476 kts 154°
2026-05-07 15:41 50.88539 7.46074 22451 ft 470 kts 154°
2026-05-07 15:41 50.85652 7.48436 21582 ft 464 kts 154°
2026-05-07 15:41 50.82821 7.50747 20999 ft 453 kts 154°
2026-05-07 15:42 50.80051 7.53004 20369 ft 443 kts 154°
2026-05-07 15:42 50.77330 7.55216 19751 ft 437 kts 154°
2026-05-07 15:42 50.74636 7.57405 19151 ft 433 kts 154°
2026-05-07 15:42 50.71976 7.59562 18553 ft 429 kts 154°
2026-05-07 15:43 50.69352 7.61687 18138 ft 416 kts 154°
2026-05-07 15:43 50.66835 7.63726 17996 ft 397 kts 154°
2026-05-07 15:43 50.64461 7.65649 17857 ft 380 kts 154°
2026-05-07 15:43 50.62165 7.67511 17722 ft 364 kts 154°
2026-05-07 15:44 50.60025 7.69665 16788 ft 372 kts 139°
2026-05-07 15:44 50.58395 7.72886 15790 ft 384 kts 118°
2026-05-07 15:44 50.57292 7.76818 15030 ft 396 kts 113°
2026-05-07 15:44 50.56220 7.80798 14362 ft 393 kts 113°
2026-05-07 15:45 50.55155 7.84729 13755 ft 389 kts 113°
2026-05-07 15:45 50.54101 7.88615 13202 ft 382 kts 113°
2026-05-07 15:45 50.53068 7.92414 12659 ft 375 kts 113°
2026-05-07 15:45 50.52053 7.96138 12164 ft 368 kts 113°
2026-05-07 15:46 50.50076 8.03366 11149 ft 357 kts 113°
2026-05-07 15:46 50.49104 8.06919 10651 ft 351 kts 113°
2026-05-07 15:46 50.48163 8.10358 10188 ft 328 kts 113°
2026-05-07 15:47 50.47301 8.13496 10037 ft 298 kts 113°
2026-05-07 15:47 50.46506 8.16385 10066 ft 288 kts 113°
2026-05-07 15:47 50.45710 8.19272 10056 ft 287 kts 113°
2026-05-07 15:47 50.44930 8.22093 10053 ft 286 kts 113°
2026-05-07 15:48 50.44140 8.24950 10049 ft 286 kts 113°
2026-05-07 15:48 50.43349 8.27814 10049 ft 285 kts 113°
2026-05-07 15:48 50.42560 8.30664 10048 ft 286 kts 113°
2026-05-07 15:48 50.41769 8.33524 10049 ft 286 kts 113°
2026-05-07 15:49 50.40977 8.36382 10051 ft 285 kts 113°
2026-05-07 15:49 50.40190 8.39221 10052 ft 284 kts 113°
2026-05-07 15:49 50.39400 8.42065 10054 ft 284 kts 113°
2026-05-07 15:49 50.38612 8.44899 10052 ft 284 kts 113°
2026-05-07 15:50 50.37821 8.47733 10052 ft 284 kts 113°
2026-05-07 15:50 50.37037 8.50540 10052 ft 284 kts 113°
2026-05-07 15:50 50.36246 8.53374 10050 ft 284 kts 113°
2026-05-07 15:50 50.35454 8.56207 10049 ft 284 kts 113°
2026-05-07 15:51 50.34660 8.59038 10047 ft 284 kts 113°
2026-05-07 15:51 50.33863 8.61879 10046 ft 284 kts 113°
2026-05-07 15:51 50.33067 8.64709 10049 ft 284 kts 113°
2026-05-07 15:51 50.32271 8.67534 10042 ft 285 kts 114°
2026-05-07 15:52 50.31468 8.70396 9897 ft 289 kts 113°
2026-05-07 15:52 50.30671 8.73234 9559 ft 279 kts 114°
2026-05-07 15:52 50.29899 8.75973 9288 ft 274 kts 114°
2026-05-07 15:52 50.29132 8.78676 9015 ft 271 kts 114°
2026-05-07 15:53 50.28365 8.81374 8742 ft 270 kts 114°
2026-05-07 15:53 50.27604 8.84046 8493 ft 269 kts 114°
2026-05-07 15:53 50.26847 8.86713 8236 ft 268 kts 114°
2026-05-07 15:53 50.26125 8.89349 7980 ft 267 kts 110°
2026-05-07 15:54 50.25571 8.92102 7729 ft 266 kts 105°
2026-05-07 15:54 50.24810 8.94706 7421 ft 264 kts 130°
2026-05-07 15:54 50.23406 8.96422 7050 ft 254 kts 157°
2026-05-07 15:54 50.21785 8.97418 6681 ft 248 kts 162°
2026-05-07 15:55 50.20166 8.98285 6242 ft 247 kts 163°
2026-05-07 15:55 50.18532 8.99144 5720 ft 248 kts 163°
2026-05-07 15:55 50.16886 8.99957 5205 ft 246 kts 171°
2026-05-07 15:55 50.15292 8.99642 5014 ft 229 kts 212°
2026-05-07 15:56 50.14272 8.97818 5005 ft 222 kts 253°
2026-05-07 15:56 50.14219 8.95497 5012 ft 217 kts 279°
2026-05-07 15:56 50.14189 8.93161 5007 ft 220 kts 252°
2026-05-07 15:56 50.13535 8.91019 5002 ft 216 kts 248°
2026-05-07 15:57 50.12981 8.88850 5009 ft 214 kts 252°
2026-05-07 15:57 50.12471 8.86679 5009 ft 209 kts 252°
2026-05-07 15:57 50.12153 8.85324 4935 ft 194 kts 252°
2026-05-07 15:57 50.11699 8.83394 4702 ft 186 kts 252°
2026-05-07 15:58 50.11261 8.81532 4440 ft 181 kts 252°
2026-05-07 15:58 50.10696 8.79138 4086 ft 176 kts 252°
2026-05-07 15:58 50.10279 8.77370 3855 ft 173 kts 253°
2026-05-07 15:58 50.09868 8.75629 3603 ft 170 kts 252°
2026-05-07 15:59 50.09462 8.73912 3361 ft 168 kts 252°
2026-05-07 15:59 50.09197 8.72792 3225 ft 164 kts 252°
2026-05-07 15:59 50.08809 8.71153 2970 ft 159 kts 253°
2026-05-07 15:59 50.08430 8.69554 2742 ft 156 kts 253°
2026-05-07 16:00 50.08056 8.67976 2511 ft 155 kts 253°
2026-05-07 16:00 50.07684 8.66408 2285 ft 154 kts 252°
2026-05-07 16:00 50.07313 8.64845 2056 ft 155 kts 252°
2026-05-07 16:00 50.06938 8.63268 1832 ft 155 kts 252°
2026-05-07 16:01 50.06562 8.61686 1611 ft 156 kts 252°
2026-05-07 16:01 50.06187 8.60110 1381 ft 154 kts 252°
2026-05-07 16:01 50.05815 8.58547 1156 ft 152 kts 251°
2026-05-07 16:01 50.05451 8.57021 935 ft 149 kts 250°
2026-05-07 16:02 50.05094 8.55521 702 ft 147 kts 250°
2026-05-07 16:02 50.04751 8.54055 478 ft 145 kts 249°
2026-05-07 16:02 50.04402 8.52591 351 ft 140 kts 249°
2026-05-07 16:02 50.04103 8.51372 351 ft 95 kts 249°
2026-05-07 16:03 50.03942 8.50703 349 ft 38 kts 249°
2026-05-07 16:03 50.03849 8.50414 352 ft 21 kts 232°
2026-05-07 16:03 50.03759 8.50274 351 ft 18 kts 220°
2026-05-07 16:03 50.03673 8.50184 349 ft 10 kts 189°
2026-05-07 16:04 50.03658 8.50187 348 ft 0 kts 168°
2026-05-07 16:04 50.03657 8.50187 345 ft 1 kts 168°
2026-05-07 16:04 50.03646 8.50194 352 ft 2 kts 154°
2026-05-07 16:05 50.03632 8.50219 353 ft 4 kts 120°
2026-05-07 16:05 50.03628 8.50267 345 ft 5 kts 85°
2026-05-07 16:05 50.03639 8.50328 349 ft 7 kts 69°
2026-05-07 16:05 50.03657 8.50402 345 ft 8 kts 70°
2026-05-07 16:06 50.03679 8.50496 355 ft 10 kts 70°
2026-05-07 16:06 50.03705 8.50605 347 ft 11 kts 70°
2026-05-07 16:06 50.03734 8.50730 345 ft 13 kts 70°
2026-05-07 16:06 50.03762 8.50852 345 ft 6 kts 74°
2026-05-07 16:07 50.03778 8.50913 347 ft 7 kts 68°
2026-05-07 16:07 50.03797 8.50989 355 ft 8 kts 69°
2026-05-07 16:07 50.03819 8.51083 348 ft 10 kts 70°
2026-05-07 16:07 50.03845 8.51192 351 ft 12 kts 70°
2026-05-07 16:08 50.03874 8.51316 349 ft 13 kts 70°
2026-05-07 16:08 50.03907 8.51453 348 ft 14 kts 70°
2026-05-07 16:08 50.03943 8.51607 348 ft 16 kts 69°
2026-05-07 16:08 50.03983 8.51775 353 ft 17 kts 69°
2026-05-07 16:09 50.04027 8.51956 351 ft 19 kts 69°
2026-05-07 16:09 50.04074 8.52150 349 ft 20 kts 69°
2026-05-07 16:09 50.04125 8.52359 351 ft 21 kts 69°
2026-05-07 16:09 50.04177 8.52580 351 ft 22 kts 70°
2026-05-07 16:10 50.04216 8.52745 354 ft 13 kts 69°
2026-05-07 16:10 50.04250 8.52884 351 ft 14 kts 69°
2026-05-07 16:10 50.04285 8.53028 352 ft 14 kts 69°
2026-05-07 16:10 50.04317 8.53160 355 ft 12 kts 69°
2026-05-07 16:11 50.04346 8.53280 353 ft 11 kts 70°
2026-05-07 16:11 50.04375 8.53394 353 ft 12 kts 69°
2026-05-07 16:11 50.04397 8.53518 353 ft 12 kts 79°
2026-05-07 16:11 50.04407 8.53653 346 ft 13 kts 84°
2026-05-07 16:12 50.04416 8.53795 349 ft 14 kts 84°
2026-05-07 16:12 50.04426 8.53942 346 ft 13 kts 84°
2026-05-07 16:12 50.04434 8.54081 349 ft 13 kts 84°
2026-05-07 16:12 50.04442 8.54212 346 ft 12 kts 85°
2026-05-07 16:13 50.04449 8.54333 351 ft 11 kts 84°
2026-05-07 16:13 50.04452 8.54447 346 ft 10 kts 94°
2026-05-07 16:13 50.04439 8.54552 352 ft 10 kts 108°
2026-05-07 16:13 50.04409 8.54639 354 ft 9 kts 126°
2026-05-07 16:14 50.04370 8.54708 352 ft 8 kts 135°
2026-05-07 16:14 50.04326 8.54757 349 ft 7 kts 150°
2026-05-07 16:14 50.04282 8.54790 353 ft 7 kts 157°
2026-05-07 16:14 50.04235 8.54817 352 ft 8 kts 160°
2026-05-07 16:15 50.04182 8.54846 353 ft 9 kts 159°
2026-05-07 16:15 50.04123 8.54880 353 ft 9 kts 159°
2026-05-07 16:15 50.04092 8.54898 352 ft 0 kts 160°
2026-05-07 16:17 50.04082 8.54903 346 ft 5 kts 160°
2026-05-07 16:17 50.04032 8.54932 351 ft 10 kts 159°
2026-05-07 16:18 50.03952 8.54981 353 ft 15 kts 159°
2026-05-07 16:18 50.03875 8.55026 352 ft 10 kts 160°
2026-05-07 16:18 50.03851 8.55117 346 ft 11 kts 78°
2026-05-07 16:18 50.03881 8.55246 351 ft 13 kts 69°
2026-05-07 16:19 50.03909 8.55367 346 ft 10 kts 70°
2026-05-07 16:19 50.03938 8.55489 353 ft 14 kts 70°
2026-05-07 16:19 50.03976 8.55645 350 ft 14 kts 70°
2026-05-07 16:19 50.04011 8.55788 354 ft 16 kts 69°
2026-05-07 16:20 50.04043 8.55922 348 ft 6 kts 69°
2026-05-07 16:20 50.04046 8.55934 349 ft 0 kts 69°
2026-05-07 16:20 50.04047 8.55937 346 ft 1 kts 69°
2026-05-07 16:20 50.04052 8.55959 356 ft 3 kts 70°
2026-05-07 16:21 50.04062 8.56003 349 ft 6 kts 71°
2026-05-07 16:21 50.04078 8.56070 346 ft 7 kts 63°
2026-05-07 16:21 50.04123 8.56094 350 ft 8 kts 354°
2026-05-07 16:21 50.04180 8.56064 350 ft 10 kts 338°
2026-05-07 16:22 50.04248 8.56021 351 ft 11 kts 328°
2026-05-07 16:22 50.04315 8.55946 354 ft 13 kts 339°
2026-05-07 16:22 50.04397 8.55910 347 ft 13 kts 356°
2026-05-07 16:22 50.04486 8.55938 352 ft 11 kts 15°
2026-05-07 16:23 50.04557 8.55994 353 ft 13 kts 52°
2026-05-07 16:23 50.04594 8.56129 353 ft 15 kts 69°
2026-05-07 16:23 50.04631 8.56287 353 ft 16 kts 70°
2026-05-07 16:23 50.04661 8.56413 354 ft 12 kts 69°
2026-05-07 16:24 50.04691 8.56525 354 ft 11 kts 60°
2026-05-07 16:24 50.04734 8.56614 349 ft 9 kts 53°
2026-05-07 16:24 50.04774 8.56670 348 ft 7 kts 25°
2026-05-07 16:24 50.04800 8.56704 346 ft 4 kts 79°
2026-05-07 16:25 50.04795 8.56737 346 ft 2 kts 107°
2026-05-07 16:25 50.04791 8.56752 346 ft 1 kts 113°
2026-05-07 16:25 50.04788 8.56762 351 ft 1 kts 113°
2026-05-07 16:25 50.04786 8.56769 353 ft 0 kts 113°